Lapse_Rate
6.5 6.5 6.5 6.5 6.5 6.5 6.5 6.5 6.5 6.5 6.5 6.5 6.5 6.5 5.0 3.9 4.0 4.2 4.0 3.7 3.8 3.5 3.0 2.7 2.1 1.7 1.8 2.0 2.4 3.0 3.5 3.7 3.8 3.9 4.0 4.1 4.1 4.5 5.0 5.2 5.9 5.8 6.2 6.2
6.5 6.5 6.5 6.5 6.5 6.5 6.5 6.5 6.5 6.5 6.5 6.5 4.5 3.7 4.6 4.3 4.5 4.1 4.0 4.6 4.9 4.4 3.6 2.8 2.0 2.3 3.1 3.6 3.8 4.1 4.0 4.5 5.1 5.0 5.3 5.5 5.0 5.3 5.5 5.4 5.5 5.4 5.6 5.2
6.5 6.5 6.5 6.5 6.5 6.5 6.5 6.5 6.5 6.5 6.5 6.3 6.5 6.1 5.0 4.6 4.5 4.5 5.1 5.5 4.8 4.1 3.5 3.3 3.5 3.7 3.6 4.2 4.4 4.2 4.4 5.0 5.4 5.5 5.5 5.4 5.4 5.2 5.3 5.8 5.9 5.4 5.2 5.0
6.5 6.5 6.5 6.5 6.5 6.5 6.5 6.5 6.5 6.5 6.5 6.3 5.8 5.0 4.7 4.2 4.1 5.2 5.7 5.2 4.8 4.4 4.1 4.2 4.4 4.2 4.3 4.4 4.6 4.5 4.6 4.9 5.2 5.2 5.3 5.9 5.8 5.7 6.0 6.3 6.1 5.9 5.9 5.9
6.5 6.5 6.5 6.5 6.5 6.5 6.5 6.5 6.5 6.5 6.5 5.5 5.2 5.1 5.7 5.1 5.5 6.0 5.7 4.9 4.4 4.3 4.2 4.1 4.1 4.4 4.1 3.9 4.1 4.3 5.0 5.4 5.7 5.9 6.2 6.2 6.0 6.1 6.6 6.5 6.5 6.6 6.6 6.6
6.5 6.5 6.5 6.5 6.5 5.7 6.3 6.5 6.2 6.3 6.3 6.0 5.3 6.5 6.5 5.9 6.1 5.1 4.8 4.6 4.5 4.3 4.2 3.8 3.7 3.7 3.6 4.5 4.7 5.0 5.5 6.0 6.6 6.8 6.7 6.5 6.6 6.8 7.3 7.2 7.1 7.7 7.6 7.5
6.5 6.5 6.5 6.5 6.2 5.8 6.5 6.5 6.0 5.6 5.1 5.1 6.3 5.2 5.3 5.6 4.9 5.1 4.9 4.6 4.1 3.7 3.8 4.1 4.0 3.9 4.1 5.0 5.2 6.1 6.5 6.8 7.2 7.4 7.1 7.0 7.2 7.5 7.6 7.5 8.0 8.2 7.9 7.6
6.5 6.5 6.5 5.6 6.4 6.5 6.2 5.3 4.8 4.3 4.5 4.7 4.9 5.4 5.5 5.0 4.8 4.8 4.4 4.2 4.3 4.1 4.4 4.4 4.0 4.3 5.2 5.5 6.3 6.8 6.8 7.1 7.4 7.6 7.7 8.4 7.7 7.7 7.8 8.1 7.8 7.6 7.6 7.4
6.5 6.5 6.4 5.1 5.5 4.7 5.2 4.1 4.4 3.9 4.7 5.0 5.4 5.6 5.5 4.8 4.6 4.5 4.2 4.0 4.3 4.2 4.6 4.6 4.5 4.8 5.9 6.7 6.8 6.8 7.5 7.7 7.7 7.8 8.1 8.2 8.0 8.0 7.9 8.2 8.2 8.1 8.0 7.8
6.5 6.5 6.5 5.7 4.8 4.5 4.5 3.9 3.9 4.2 4.6 4.8 5.9 5.4 4.8 4.1 4.2 4.2 4.1 4.3 4.5 4.0 4.4 5.1 6.0 6.2 5.7 6.3 6.9 7.3 7.3 7.4 7.6 7.7 8.0 8.3 8.5 8.6 8.3 8.3 8.3 8.4 8.4 8.1
6.5 6.5 6.4 6.0 4.9 4.5 3.9 4.0 4.3 5.0 5.4 5.9 5.8 5.0 4.6 4.4 4.2 4.1 4.0 4.5 4.6 5.0 5.7 6.1 6.5 6.4 6.2 6.9 7.0 7.1 7.4 7.5 7.4 7.6 7.5 7.7 8.0 8.1 8.4 8.5 8.6 8.5 8.4 8.2
6.5 6.3 5.9 5.8 4.8 4.5 4.3 4.6 4.5 5.1 5.9 6.0 5.7 4.7 4.8 4.2 4.2 4.1 4.1 4.8 5.0 5.6 5.3 6.0 6.5 6.6 6.8 6.9 7.0 7.1 7.2 7.3 7.4 7.6 7.2 7.5 7.8 7.8 8.5 8.9 9.2 9.2 9.2 8.9
5.6 5.0 4.5 4.6 4.4 4.6 4.3 4.3 5.0 5.3 5.4 5.1 4.6 4.3 4.6 4.3 4.3 5.5 5.4 4.8 5.0 5.6 6.5 6.3 6.3 6.7 6.9 7.0 7.1 7.1 7.0 7.1 7.1 7.5 7.3 7.5 7.5 7.4 7.9 8.0 8.4 8.5 8.9 8.7
4.6 5.0 5.7 5.2 4.7 4.2 4.7 5.2 6.2 5.5 4.6 4.3 4.4 4.5 4.3 3.9 3.9 4.1 4.4 5.5 6.0 6.2 6.4 6.6 6.6 6.5 6.9 7.1 7.1 7.0 6.8 7.5 6.8 7.0 7.7 7.4 7.0 6.9 6.8 7.1 7.2 7.4 7.5 8.4
4.0 3.4 3.7 3.6 3.7 4.4 4.7 4.6 5.1 4.2 4.2 3.9 4.0 4.2 4.1 4.1 4.5 5.2 5.5 5.8 6.1 6.0 5.9 6.2 6.6 6.6 7.0 7.1 6.9 6.7 6.5 7.1 7.6 7.5 7.6 7.3 7.0 7.0 7.0 7.1 7.0 7.1 6.9 7.5
3.9 3.4 3.8 4.1 4.5 4.8 5.2 5.3 5.0 4.0 4.0 4.1 4.0 4.1 4.5 4.3 4.6 4.9 5.2 5.5 5.6 6.7 6.5 6.5 6.6 6.9 6.9 6.8 6.5 7.1 7.7 8.3 8.5 7.6 7.0 6.6 6.7 7.1 7.6 7.7 7.6 7.4 7.2 7.2
4.3 4.9 4.9 5.3 5.2 5.8 5.7 4.4 3.8 3.7 3.7 3.5 3.8 4.2 4.2 4.4 4.5 4.7 5.2 5.2 5.9 6.0 6.2 6.4 6.7 6.8 6.8 6.7 7.0 7.3 7.6 6.9 7.5 5.7 6.4 6.8 7.1 7.3 7.5 7.2 7.4 7.4 7.1 7.2
4.5 4.8 4.7 5.1 4.7 4.4 3.9 4.1 3.8 3.8 3.8 4.4 4.4 4.4 4.3 4.6 5.4 6.0 6.0 5.7 5.7 5.6 6.1 6.4 6.5 6.8 7.1 6.7 6.9 7.0 6.1 6.2 5.8 5.9 6.2 6.6 7.5 7.0 6.5 6.6 6.5 6.5 6.5 6.7
4.7 4.2 4.1 5.0 4.3 4.1 3.8 3.8 3.9 3.9 3.6 3.8 4.0 4.4 4.9 5.1 5.6 5.9 5.7 5.7 5.6 5.8 6.3 6.4 6.9 7.0 6.4 6.6 7.7 6.0 5.3 5.5 5.5 5.6 5.9 7.1 5.9 6.1 6.3 6.2 6.3 6.3 6.3 6.5
5.2 4.5 4.3 4.5 4.5 4.7 3.7 3.5 3.4 3.2 3.7 4.3 4.6 4.8 5.1 5.3 5.7 6.0 6.0 5.8 6.0 6.4 6.6 6.6 6.8 6.2 6.2 6.8 7.3 5.3 5.4 5.5 5.4 5.3 5.3 5.8 5.1 5.7 5.6 6.2 6.4 6.3 6.4 6.7
4.7 4.5 4.4 4.2 3.8 4.0 4.0 3.4 3.6 3.9 4.6 4.9 4.9 5.3 5.6 5.9 5.6 5.9 5.9 6.0 6.0 6.5 7.3 7.3 6.6 6.2 6.9 6.6 5.4 5.1 5.1 4.9 5.0 4.8 4.7 4.7 4.7 4.9 5.2 5.7 6.2 6.4 6.6 6.3
3.6 3.5 3.7 3.7 3.5 3.5 3.7 3.8 4.1 4.7 4.9 4.9 5.5 6.0 5.7 6.0 6.0 6.0 6.6 6.6 6.6 7.3 7.0 5.9 5.5 7.2 6.6 6.0 4.7 4.5 4.6 4.5 4.5 4.0 3.7 4.4 4.6 4.7 5.1 5.7 6.1 6.3 6.4 6.0
3.5 3.7 3.9 3.5 3.7 3.6 3.4 3.7 4.4 5.3 5.6 5.9 5.9 5.8 6.1 6.6 6.5 6.0 5.7 6.3 6.4 6.5 6.1 5.6 7.3 6.9 6.2 4.7 4.2 4.0 3.7 3.5 4.2 3.7 3.1 4.6 4.5 4.9 5.4 6.1 6.1 6.1 6.2 6.1
3.3 3.2 3.5 3.9 3.0 3.4 4.0 4.8 4.9 5.8 5.6 5.7 6.3 6.5 6.3 5.8 5.3 5.9 6.1 6.8 7.1 7.1 6.1 6.3 6.5 6.3 5.7 4.3 3.9 2.7 2.2 2.7 3.9 3.7 3.9 5.7 4.7 5.2 5.6 5.7 6.3 6.1 6.0 6.2
2.9 2.9 3.2 3.5 3.8 4.6 5.2 5.1 5.0 4.8 5.5 5.7 6.0 6.1 6.1 6.0 6.0 5.5 5.4 5.9 6.5 5.9 5.2 6.0 6.1 5.5 4.3 4.2 2.8 2.2 2.1 2.7 5.0 4.4 4.1 4.7 4.7 5.1 5.5 5.7 6.0 6.3 5.9 6.1
3.0 3.1 3.4 4.4 5.2 4.9 6.0 5.6 5.8 6.4 6.0 5.7 5.5 5.8 5.5 5.6 5.5 6.1 5.7 5.9 5.2 5.4 4.9 4.8 4.5 3.6 2.5 4.9 3.4 2.7 2.6 4.4 4.3 4.2 4.0 4.2 4.5 5.2 5.7 5.7 5.5 5.4 5.7 5.7
3.4 5.1 3.9 4.4 5.4 6.1 5.9 7.5 7.0 5.6 6.1 6.3 5.5 5.6 5.4 5.5 5.8 5.9 5.4 4.8 5.2 4.8 4.0 3.6 2.7 5.3 4.8 5.4 5.4 5.4 5.6 4.1 5.9 4.2 2.4 2.4 2.6 2.9 4.4 4.6 4.8 4.9 5.2 5.3
Wind_Speed
0 3 3 4 6 10 8 9 7 5 8 7 11 9 7 7 7 7 6 6 4 2 3 3 5 5 5 5 6 5 6 6 7 7 7 7 7 8 8 9 11 11 11 11
2 1 1 3 3 9 8 3 7 3 4 1 6 8 6 7 7 7 6 4 2 3 5 6 6 6 6 7 7 6 7 8 8 8 9 10 9 9 10 10 11 11 11 11
3 3 5 5 10 13 5 4 5 8 6 8 5 8 7 6 6 6 4 0 4 6 6 6 7 7 7 7 7 7 8 9 9 10 11 11 10 9 10 11 11 11 12 11
2 2 2 4 1 3 8 1 2 3 4 5 8 6 5 4 5 4 2 5 6 6 6 7 6 7 8 8 9 9 10 10 10 9 10 11 11 11 11 11 12 12 13 13
5 4 5 4 5 7 7 5 4 7 7 7 6 5 3 3 3 3 3 5 6 6 7 7 8 10 9 8 8 8 10 11 11 10 12 13 13 12 12 11 11 12 13 14
3 4 7 2 2 4 3 3 8 10 9 8 5 3 2 4 2 6 6 6 7 7 6 6 8 7 7 10 10 11 12 12 12 12 12 13 14 14 14 12 13 12 15 13
4 3 6 3 5 3 6 3 7 7 7 6 4 3 3 1 4 4 6 7 7 7 6 8 8 7 8 10 11 13 12 13 14 14 14 14 15 13 13 13 14 16 15 14
3 4 8 6 4 7 4 5 9 7 5 6 5 4 2 5 5 6 7 7 9 7 7 8 7 7 11 11 13 12 12 13 14 14 11 11 13 13 14 14 15 15 14 13
6 2 2 3 3 7 5 8 5 7 5 6 5 3 2 4 6 6 8 7 7 8 10 9 8 7 11 13 11 11 12 13 13 13 12 12 13 14 12 12 11 13 11 11
4 3 4 7 6 5 5 7 7 6 6 5 2 3 5 6 6 6 7 8 8 8 9 11 8 7 7 10 11 11 13 13 12 13 14 13 10 10 10 11 11 11 11 11
4 3 7 5 4 7 7 8 7 5 4 3 2 5 5 5 6 7 7 7 7 7 9 11 10 10 8 10 10 12 12 12 12 11 12 12 11 11 11 12 14 13 12 11
2 10 4 6 6 6 8 6 7 5 2 1 2 6 5 6 6 6 7 7 7 8 7 11 11 11 10 9 10 11 12 10 10 11 11 11 11 12 20 25 28 29 29 22
4 5 3 12 8 5 6 6 5 4 3 3 4 4 4 5 4 9 7 8 8 9 11 10 10 10 10 10 10 11 11 12 10 13 11 11 11 12 13 15 26 27 28 28
9 12 9 3 5 7 7 5 2 1 3 4 4 4 5 6 7 7 7 9 9 10 10 10 10 10 10 10 10 11 12 21 11 11 11 12 12 13 12 13 12 12 18 21
6 6 6 7 7 6 4 2 2 4 4 5 4 5 6 7 8 9 8 9 9 8 9 9 10 12 11 10 11 12 11 11 11 11 11 14 11 11 11 11 11 11 10 15
6 8 8 7 7 5 2 2 3 5 4 4 5 6 7 8 9 9 8 8 8 10 11 12 12 12 11 11 11 11 10 20 18 10 8 10 9 10 9 10 10 9 9 10
8 5 4 3 3 1 2 3 5 6 6 6 8 7 7 7 6 7 7 7 7 9 11 12 12 11 11 11 11 8 10 7 19 7 8 9 9 9 9 9 9 9 10 11
5 5 6 5 2 2 5 5 6 7 6 6 7 6 6 6 8 9 9 7 8 9 10 10 10 11 12 11 10 9 5 7 7 8 8 9 8 8 9 8 9 9 9 10
3 6 5 3 1 3 4 5 5 6 6 6 6 6 6 7 7 7 6 8 8 9 10 10 17 15 11 11 13 5 6 7 7 7 8 12 8 8 8 8 8 9 9 8
4 3 3 3 4 3 4 4 6 6 6 6 6 6 6 7 6 8 7 8 8 8 10 11 12 9 9 8 12 4 6 7 7 7 7 7 7 8 8 12 10 8 8 8
2 3 4 5 5 5 6 5 5 6 6 6 5 6 6 7 6 7 6 6 10 9 11 14 7 6 4 6 6 5 5 6 6 6 6 7 7 8 8 9 8 8 8 8
2 3 5 5 5 5 6 5 5 5 5 6 5 5 6 6 6 7 6 7 7 16 9 4 5 8 6 9 4 4 5 6 5 5 5 6 6 7 7 8 8 8 7 8
3 3 4 5 5 6 6 5 5 5 5 5 5 6 5 5 4 5 7 5 6 11 2 4 8 10 10 4 4 4 5 5 5 4 4 5 6 6 7 7 7 8 8 8
4 4 4 4 5 4 5 4 5 5 5 5 6 5 5 4 5 4 5 11 14 8 4 6 6 9 8 4 4 4 4 4 4 4 5 11 6 6 7 7 7 7 8 9
5 5 5 5 5 4 5 3 4 5 5 5 5 5 6 4 4 5 5 6 7 4 3 7 9 9 4 4 4 4 4 3 4 4 5 6 6 6 7 7 8 8 8 8
4 4 3 5 4 3 3 3 4 3 3 3 4 4 5 5 4 5 3 3 2 4 3 3 3 3 3 4 4 4 4 5 5 5 5 5 6 7 7 8 7 7 7 7
4 7 3 3 3 3 3 4 5 4 5 4 6 6 5 4 4 3 3 2 2 3 3 3 2 4 3 3 4 4 5 4 8 4 4 4 4 4 5 6 6 6 6 6
Wind_Direction
255 107 145 183 171 167 187 199 181 214 197 208 193 162 149 140 127 112 105 105 86 40 340 317 322 323 322 309 309 310 312 307 291 284 278 274 275 275 283 286 291 285 287 286
343 240 261 253 181 191 222 215 259 247 258 315 113 110 131 144 137 127 127 116 16 323 319 315 309 303 304 298 292 293 293 289 286 281 281 281 275 277 280 279 282 283 282 279
240 69 59 329 220 213 191 196 186 212 209 151 126 137 152 150 141 140 133 98 316 300 293 286 273 258 264 268 273 275 272 275 278 277 275 271 268 265 267 277 280 275 277 277
150 44 280 241 354 209 201 111 133 80 121 125 123 128 130 132 128 102 335 291 276 266 265 270 275 286 281 285 284 282 279 276 272 270 270 275 275 273 276 280 277 277 275 275
152 207 303 158 203 150 167 202 168 130 112 104 106 84 65 133 139 182 239 270 275 278 272 277 275 272 271 274 270 273 278 279 281 279 282 278 274 276 281 279 278 278 272 275
145 173 219 246 191 140 120 280 158 141 137 135 126 138 195 181 329 326 308 280 275 271 261 258 268 275 288 293 292 287 284 281 282 285 284 283 278 283 286 281 276 283 277 274
189 221 281 194 156 170 138 210 133 130 130 131 135 165 154 167 276 248 264 288 289 284 276 277 284 284 283 283 281 281 286 288 293 295 291 284 284 284 284 280 285 285 279 278
145 215 260 144 95 178 148 67 119 118 134 144 140 150 216 261 276 297 297 304 303 297 287 279 275 279 283 282 282 286 287 290 292 292 288 289 289 288 284 286 286 282 281 279
182 177 48 44 106 110 121 122 120 119 141 139 148 191 274 284 311 302 294 287 285 279 286 282 270 254 276 285 292 290 297 300 298 295 293 293 291 289 289 290 287 284 281 279
130 33 59 92 76 79 104 114 128 129 142 142 156 304 300 299 287 280 280 284 283 284 285 287 289 282 260 287 295 300 297 296 296 296 297 295 291 288 288 288 287 286 285 283
71 65 85 23 90 122 105 104 104 112 129 149 180 275 252 269 281 277 273 279 270 270 277 286 297 299 295 295 293 292 292 296 297 294 292 293 288 286 284 281 281 286 285 282
180 175 146 166 153 123 120 131 141 132 135 255 237 266 276 277 265 264 273 276 281 283 279 293 298 295 291 284 285 290 297 301 296 297 294 292 292 291 282 285 289 289 289 287
165 125 112 127 131 118 121 141 147 162 205 261 270 252 265 268 262 294 299 291 284 283 292 289 284 283 285 289 293 294 296 298 296 297 295 295 294 292 295 291 285 285 284 284
100 108 85 106 148 131 123 136 135 215 253 249 259 281 277 280 291 286 282 280 284 285 285 287 289 289 295 303 303 302 298 298 299 298 295 292 289 285 282 286 290 288 285 283
56 67 118 110 105 118 118 135 311 293 273 275 249 249 281 290 289 287 281 278 281 287 287 292 303 306 309 310 308 306 305 303 298 297 295 300 307 313 312 308 306 309 306 295
95 94 107 119 139 135 140 328 295 289 281 279 282 285 272 268 276 282 283 287 302 311 310 311 309 308 311 307 303 303 306 309 311 323 328 319 317 319 317 318 318 316 315 312
112 117 114 113 141 80 322 301 270 273 286 287 277 277 280 277 277 283 288 290 298 301 304 304 302 305 304 301 302 309 308 318 326 324 324 319 317 311 320 318 315 316 310 309
115 112 103 108 136 266 291 272 278 276 268 264 269 273 285 296 303 306 304 302 305 301 300 297 296 304 309 308 306 301 337 323 323 320 319 320 319 325 316 315 312 309 311 312
121 125 110 71 349 266 264 265 263 263 277 285 307 305 298 294 295 297 301 304 300 300 301 306 308 316 308 306 321 341 326 322 321 321 324 326 327 320 324 321 321 320 320 322
86 67 17 319 301 253 293 290 305 309 301 308 305 304 298 293 292 297 296 288 285 281 296 300 312 309 303 315 341 335 326 325 324 326 329 335 326 330 328 335 336 334 338 345
320 294 300 317 318 325 321 311 307 292 290 295 293 287 284 294 289 289 295 297 298 299 307 316 318 308 306 352 358 335 329 329 331 332 326 324 327 332 336 338 343 349 353 354
317 314 317 322 317 301 296 293 286 285 291 294 288 287 291 296 291 292 277 275 295 310 311 321 305 330 2 10 344 338 336 336 331 327 326 330 333 337 341 344 356 355 358 358
326 318 315 310 302 292 299 300 305 296 295 299 296 290 287 285 288 294 303 294 307 303 340 318 343 17 22 5 344 345 342 333 332 328 322 333 340 344 351 357 5 0 2 6
340 329 310 324 323 325 315 311 312 310 301 296 290 285 291 296 289 266 279 300 308 338 355 334 31 33 35 354 353 342 332 325 327 338 344 8 357 356 0 358 2 6 6 9
340 330 332 328 317 303 307 293 303 301 309 301 292 293 285 272 259 293 290 294 337 15 2 360 42 43 14 358 352 349 337 330 8 7 360 3 360 1 5 7 12 18 7 7
341 317 305 303 293 291 291 307 293 290 294 294 294 288 289 289 291 300 303 33 28 37 26 16 71 21 358 35 353 344 350 355 13 11 16 3 3 12 16 15 12 7 8 7
334 339 310 317 317 320 308 304 325 300 301 291 291 290 281 289 299 340 70 44 50 56 46 43 11 52 4 19 357 359 8 4 22 24 2 358 2 358 359 358 358 354 356 3